Theta_e
303 303 303 303 303 303 303 303 303 303 303 303 303 304 305 305 305 306 308 309 308 310 312 311 311 310 311 311 311 312 312 312 312 311 312 314 316 318 320 322 321 322 322 326 332 334 334 334 334 334 334 335 335 335 336 336 336 336 336 336 335 333 332 332 331 331 330 330 329 329 328 328 328 328 328 329 329 329 329 328 328 328 328 328 327 327
303 303 304 303 304 304 304 304 304 304 304 305 305 305 305 305 306 306 307 308 310 311 312 311 312 311 311 311 311 311 312 313 313 312 313 313 314 316 318 320 322 321 324 328 331 333 334 335 333 332 333 334 335 335 335 336 336 336 336 336 336 335 333 332 332 331 331 330 330 329 329 330 330 329 329 329 329 329 329 329 329 328 328 328 328 327
304 304 304 303 303 304 304 304 305 305 305 306 306 305 305 305 307 306 308 309 310 312 311 311 313 313 312 313 313 314 314 314 314 314 315 316 316 317 317 319 322 323 323 325 327 330 332 335 334 333 332 333 334 335 335 335 336 336 336 336 336 336 335 334 333 332 332 331 331 331 331 331 331 331 331 330 330 330 330 329 329 329 329 329 329 328
305 304 304 303 303 304 305 305 305 304 305 306 305 304 305 307 308 307 308 309 308 310 311 311 312 312 311 312 312 313 314 315 315 315 316 318 318 319 319 320 322 324 324 323 324 328 330 333 334 333 333 333 333 334 334 334 335 335 336 336 336 336 336 336 335 334 333 332 332 332 332 332 332 332 332 332 331 331 331 331 331 330 330 330 329 329
305 304 304 304 304 304 305 305 305 305 305 305 305 306 308 308 307 306 306 307 308 309 310 311 311 311 310 310 310 311 313 314 316 316 317 319 320 320 321 323 323 324 324 324 324 325 327 330 332 333 333 332 332 333 333 333 334 334 335 335 336 336 336 336 336 335 335 334 334 333 333 332 333 333 333 333 333 333 333 332 332 332 331 331 331 331
304 304 304 304 304 305 305 305 306 305 305 306 306 307 308 307 306 306 307 308 309 310 310 310 311 312 311 311 311 311 311 312 315 318 319 320 321 322 322 323 323 322 323 324 323 324 325 326 327 329 331 332 332 332 332 332 332 333 334 334 334 335 335 335 335 336 336 335 335 335 334 334 333 334 334 334 334 334 334 334 333 332 333 333 333 332
304 304 304 304 304 305 306 306 306 305 305 306 307 307 308 307 306 307 308 308 310 311 309 309 311 312 311 311 311 311 312 312 313 316 320 321 321 321 320 318 317 317 319 319 319 319 321 323 325 326 328 330 331 331 331 332 332 332 333 333 333 333 334 335 335 335 335 336 336 335 335 335 335 335 335 335 335 334 334 334 334 334 333 333 334 334
302 303 304 304 304 304 305 305 306 306 305 306 307 308 308 307 307 308 308 308 309 309 308 309 311 311 311 310 310 310 311 313 313 314 316 316 315 314 312 311 311 311 311 312 312 311 313 316 320 322 324 326 327 328 329 331 332 331 331 332 332 333 333 333 333 334 334 334 335 335 336 335 335 335 335 335 335 334 334 334 335 334 334 333 334 334
302 303 303 304 304 303 303 304 305 306 307 307 307 307 307 306 307 307 307 307 308 308 309 310 311 311 310 310 309 309 311 312 312 311 309 308 308 307 307 307 308 307 307 307 307 307 308 310 312 315 319 322 324 326 328 330 330 328 329 330 330 329 329 330 331 332 333 333 334 335 335 335 335 335 335 335 335 334 334 334 334 334 334 334 334 334
301 302 302 304 304 302 302 303 304 306 307 307 306 307 308 307 306 305 306 307 307 309 310 308 309 310 309 308 308 308 309 308 308 307 305 304 304 305 304 305 305 306 306 306 305 306 307 307 308 309 311 314 316 320 325 328 328 328 328 328 327 326 326 326 328 330 331 332 333 333 334 334 335 335 335 335 335 334 334 334 334 334 334 333 333 333
301 302 303 304 304 302 302 303 303 305 306 306 306 308 310 309 307 305 305 306 307 310 309 306 306 308 309 308 307 306 305 304 304 303 303 302 302 303 303 303 303 304 304 305 304 305 306 306 306 306 306 308 308 310 315 318 322 325 326 326 325 324 325 325 327 329 330 331 332 333 333 334 334 334 335 335 334 334 334 334 334 333 333 333 333 333
300 302 301 302 303 301 301 304 304 304 305 306 307 309 309 310 309 307 305 305 308 310 309 305 305 307 309 307 305 303 302 302 302 301 301 301 301 302 302 302 302 303 303 303 304 304 305 305 306 306 305 306 306 306 307 309 311 315 318 322 324 323 324 325 326 327 329 330 331 332 332 333 333 334 334 334 334 334 333 333 333 333 333 333 333 333
299 299 299 301 303 300 300 303 305 306 306 307 308 309 309 309 309 309 308 307 309 310 308 305 303 305 307 304 302 301 301 301 300 300 300 300 300 301 301 302 302 302 302 302 303 303 303 304 305 305 305 305 305 305 305 305 306 308 310 313 316 319 321 324 325 326 328 329 330 331 332 332 333 333 333 333 333 334 333 333 333 332 332 332 332 332
298 299 299 300 301 300 299 301 303 305 305 306 308 309 308 309 310 310 309 309 310 310 307 303 303 306 306 303 301 300 300 300 300 300 300 300 300 300 300 301 301 301 301 302 302 302 302 303 304 304 304 304 304 304 304 305 305 305 307 308 309 312 314 318 322 326 328 329 330 330 331 331 332 332 332 332 332 333 333 333 333 332 332 332 332 331
298 298 298 299 299 299 299 298 300 302 304 306 307 308 308 308 309 310 309 309 309 309 307 304 306 309 308 304 301 300 300 299 299 299 300 300 300 300 300 300 300 300 300 301 301 301 302 303 303 303 303 303 303 303 303 303 304 305 306 306 307 308 309 311 315 319 324 327 329 330 330 331 331 331 331 332 332 332 332 333 333 332 332 332 331 331
297 297 298 300 299 298 297 297 299 302 305 306 305 307 307 306 307 309 309 309 309 309 308 307 308 308 307 305 302 300 299 298 299 299 299 300 300 300 300 299 300 300 300 300 301 301 301 302 302 302 302 302 302 302 302 302 303 304 304 305 305 306 307 308 309 311 315 320 325 328 330 331 331 331 331 331 331 332 332 332 333 332 332 332 331 331
297 298 298 299 298 297 296 297 300 301 302 303 303 303 304 304 306 309 309 308 308 309 309 309 309 307 307 307 301 298 298 298 298 299 299 299 299 299 299 299 299 299 299 300 300 300 301 301 301 301 301 301 301 301 301 301 302 302 303 303 304 304 305 306 307 308 310 313 317 322 326 329 330 331 331 331 331 331 332 332 332 332 332 332 331 331
297 299 298 297 297 297 297 298 301 301 300 301 300 299 302 305 307 307 308 308 306 307 308 308 308 308 309 307 301 297 298 298 298 298 298 299 299 298 299 299 299 299 299 299 300 300 301 301 301 300 300 300 300 300 300 300 300 300 301 301 302 303 303 304 305 306 307 308 311 314 319 325 329 330 330 331 331 331 331 331 331 331 332 331 331 331
297 299 298 297 296 296 297 299 301 300 299 300 299 299 302 305 305 304 306 307 306 305 306 306 306 308 307 303 298 297 298 297 298 298 298 298 297 297 298 298 298 299 299 299 299 299 300 300 300 300 300 299 299 299 298 299 299 298 299 299 299 300 301 302 302 303 304 305 307 308 311 316 321 326 329 330 330 330 331 331 331 331 331 331 331 331
297 297 296 296 297 296 298 299 299 299 299 300 300 299 299 301 302 303 303 305 305 304 304 304 306 307 303 298 297 297 297 297 297 297 297 296 296 297 297 298 298 298 299 298 298 298 299 299 299 299 299 298 298 298 297 298 298 297 297 297 297 298 299 300 300 301 302 302 304 305 306 308 312 316 320 325 328 330 330 330 330 330 330 330 330 330
297 296 295 296 296 296 298 298 297 298 298 298 298 298 297 297 299 300 300 301 301 300 301 303 305 305 300 296 297 297 297 297 297 296 296 296 296 296 297 297 298 298 297 297 297 297 297 298 298 298 298 298 297 297 297 296 296 296 296 296 296 297 298 298 299 299 300 300 301 302 303 305 306 309 312 316 321 325 328 329 330 330 330 330 330 330
297 296 295 297 296 295 296 296 296 297 298 297 296 297 297 296 297 296 295 298 298 297 300 301 302 302 299 296 297 297 296 296 295 295 295 295 295 296 296 296 297 296 296 295 295 296 296 296 296 296 297 297 297 296 296 296 296 295 295 295 295 296 296 297 297 298 298 298 299 300 301 302 303 305 308 310 314 318 322 325 328 329 329 330 330 330
296 296 296 297 295 294 295 295 295 296 298 298 297 297 296 295 296 295 293 296 297 297 298 300 300 301 299 296 297 297 296 295 294 294 294 294 294 295 296 296 296 296 295 294 294 295 295 294 294 295 295 295 296 296 295 295 295 294 294 294 294 294 295 295 296 296 296 297 298 299 300 301 302 303 304 306 309 312 316 319 323 326 328 329 330 330
296 296 296 296 294 293 295 296 295 294 296 297 295 296 295 294 296 296 295 297 298 298 298 298 299 301 300 298 297 296 295 294 293 292 292 292 293 294 296 296 296 295 294 293 293 293 293 293 293 293 293 294 294 295 295 294 294 294 293 293 293 293 294 294 295 295 295 296 297 297 298 299 300 301 301 303 305 307 309 312 316 320 324 326 328 329
295 295 295 293 290 292 294 295 294 293 294 295 294 295 295 294 295 296 295 296 296 297 298 297 297 300 301 299 297 296 295 294 293 291 291 291 291 292 295 296 295 294 293 292 292 292 292 292 292 292 292 293 293 293 293 293 293 293 293 292 292 293 293 293 294 294 295 295 296 296 297 298 299 299 300 300 301 302 304 306 310 314 318 322 324 327
295 295 294 291 289 290 291 291 291 292 293 294 294 294 294 294 294 294 295 294 293 294 296 297 297 298 299 297 296 296 294 293 292 291 290 290 290 291 293 295 295 293 292 292 291 291 291 290 290 290 291 292 292 293 292 292 291 292 292 292 292 292 292 293 293 293 294 295 295 296 297 297 298 299 299 299 300 300 301 303 305 308 312 316 320 323
293 293 294 292 290 290 290 290 291 293 294 293 293 293 293 293 292 292 294 294 294 293 295 296 295 295 296 295 296 296 294 292 291 290 289 289 290 290 291 294 295 293 291 291 290 290 289 289 290 290 290 291 292 292 292 291 291 291 291 291 291 291 292 292 293 293 293 294 295 295 296 296 297 298 298 299 299 299 300 301 302 304 306 310 314 317
289 289 290 292 292 292 291 292 292 293 292 292 291 291 291 291 291 292 293 294 294 293 293 294 295 295 295 294 295 295 293 291 290 289 289 289 289 290 289 292 294 292 291 290 289 288 288 288 289 289 289 290 291 291 291 290 290 290 290 290 290 291 292 292 292 293 293 294 294 295 295 295 296 297 297 297 297 298 298 299 300 301 303 305 308 311
288 287 289 290 292 292 291 291 291 290 290 290 290 290 290 290 291 291 292 292 292 293 293 294 294 294 294 294 295 293 291 290 289 288 289 288 289 289 289 291 293 292 289 289 288 288 288 288 288 289 289 289 290 290 290 289 289 289 289 290 290 291 291 291 292 292 293 293 294 294 294 295 295 296 297 297 297 297 297 298 298 299 301 302 304 307
287 288 289 289 289 289 289 289 289 289 289 289 290 290 290 291 291 291 291 291 292 292 293 293 293 294 294 294 293 291 289 289 288 288 289 288 289 289 288 290 292 290 288 288 288 288 288 288 288 288 288 289 289 289 289 289 289 289 289 289 290 290 291 291 291 292 293 293 293 293 294 294 295 295 296 297 297 297 297 297 297 298 299 300 302 304
287 288 288 287 288 288 288 288 289 289 290 290 291 291 291 291 291 292 292 292 292 293 293 293 293 294 295 293 291 290 289 288 288 288 288 288 288 288 289 290 291 289 288 288 288 288 288 288 288 288 288 288 289 289 289 288 288 288 288 289 289 290 290 290 291 291 292 292 293 293 293 294 294 295 295 296 296 297 297 296 297 297 298 299 300 302
287 287 287 287 288 289 288 289 290 290 290 291 291 291 291 292 292 293 293 293 293 293 294 294 294 295 294 291 290 289 289 288 288 288 288 288 288 288 289 290 289 288 287 288 287 287 287 287 288 288 288 288 288 288 288 288 287 287 288 288 289 290 290 290 290 291 291 292 292 292 292 293 293 294 294 295 295 296 296 296 296 297 297 298 299 300
286 287 287 287 289 289 288 289 289 290 291 293 294 293 293 292 293 293 293 294 294 294 293 295 295 294 292 290 289 289 288 288 288 288 287 287 287 288 289 289 288 287 287 287 287 287 287 287 288 287 287 287 287 288 287 287 287 287 287 288 289 289 290 290 290 291 291 291 291 291 292 292 292 293 293 294 294 295 295 296 296 297 297 297 298 298
285 286 287 288 289 289 288 289 290 291 292 293 294 294 294 293 293 293 293 293 293 293 294 294 294 291 290 289 289 288 288 288 288 287 287 287 288 288 289 288 287 287 287 287 287 287 287 287 287 287 287 287 287 287 287 287 287 287 287 287 288 289 289 290 290 290 291 291 291 291 291 291 292 292 293 293 293 294 294 295 296 296 296 297 297 298
286 286 287 288 288 288 289 290 291 291 291 292 293 293 293 293 293 293 292 292 293 293 294 293 292 290 289 289 288 288 288 287 287 287 287 287 288 289 288 287 287 287 287 286 287 287 287 287 287 287 287 287 287 287 286 286 286 286 286 287 288 288 289 289 289 290 290 291 291 291 291 291 291 291 292 292 292 293 294 294 295 296 296 296 297 297
287 286 287 288 288 289 290 291 291 291 291 291 291 291 292 292 292 292 292 292 293 293 293 293 291 289 288 288 288 288 288 287 287 287 288 288 289 288 287 287 287 287 287 287 287 287 287 287 287 287 286 286 286 286 286 286 286 286 286 287 287 288 288 289 289 289 290 290 290 291 291 291 291 291 291 291 292 292 293 293 294 295 295 296 296 297
287 287 287 288 288 289 290 291 291 291 290 290 291 292 292 292 292 292 292 291 292 292 292 291 290 288 288 288 288 288 287 287 287 288 288 288 289 288 287 287 287 287 287 287 287 287 287 286 286 286 286 286 286 286 286 286 286 286 286 286 287 288 288 288 288 289 289 290 290 290 290 290 291 291 290 290 291 291 292 292 293 293 294 295 296 296
287 287 288 288 289 290 290 291 291 289 289 290 292 292 291 290 291 291 290 289 290 291 290 289 288 288 288 287 287 287 287 287 287 288 288 288 288 288 287 287 287 287 287 287 286 286 286 286 286 286 286 286 286 285 286 286 285 286 286 286 287 287 287 288 288 288 289 289 290 290 290 290 290 290 290 290 290 290 291 291 292 292 293 294 295 296
286 287 287 288 290 290 290 290 289 288 289 290 291 290 289 289 290 289 289 289 290 290 288 288 288 287 287 287 287 287 287 287 287 288 288 288 287 287 287 287 287 287 286 286 286 286 286 286 286 286 285 285 285 285 285 285 285 285 286 286 287 287 287 287 287 288 288 289 289 289 289 289 289 289 290 290 290 290 290 291 291 291 292 293 294 295
286 287 287 287 289 289 289 289 289 289 289 289 290 290 289 288 289 288 288 289 290 289 288 287 288 287 287 287 287 287 287 287 287 288 288 288 287 287 287 287 287 286 286 286 286 286 286 286 285 285 285 285 285 285 285 285 285 285 286 286 286 286 287 287 287 288 288 288 288 288 288 288 288 289 289 289 289 290 290 290 290 291 291 292 292 293
285 286 287 287 288 289 289 290 289 289 290 289 289 290 289 288 288 288 289 290 290 289 288 288 287 287 288 288 288 287 287 287 288 287 288 288 287 287 287 287 286 286 286 286 285 285 286 286 285 285 285 285 285 285 285 285 285 285 285 286 286 286 286 287 287 287 287 287 287 287 287 287 287 288 288 288 289 289 289 290 290 290 291 291 292 292
284 285 285 286 288 287 288 289 288 288 289 289 289 289 288 288 288 289 289 289 289 288 288 288 288 288 288 288 288 287 287 288 288 287 287 287 287 287 287 287 286 286 286 286 286 285 285 285 285 285 285 285 285 285 285 285 285 285 285 285 285 286 286 286 286 286 286 286 286 286 286 286 286 287 287 288 288 288 289 289 290 290 290 291 291 292
286 286 285 285 286 286 286 287 287 288 289 288 288 288 288 288 289 290 289 288 288 288 288 288 288 288 288 288 288 288 287 287 287 287 287 287 287 287 287 287 286 286 286 286 286 285 285 285 285 285 285 285 285 285 285 284 284 284 285 285 285 285 285 285 285 284 284 284 284 284 284 285 285 286 286 286 287 287 287 288 289 289 290 290 291 292
287 287 286 285 286 286 285 286 287 289 288 287 288 289 288 289 290 290 289 288 288 289 288 288 288 288 288 288 287 287 287 287 287 287 287 287 287 287 287 287 286 286 286 286 285 285 285 285 285 285 285 284 284 284 284 284 284 284 284 284 284 284 284 283 283 283 282 283 283 283 284 284 284 284 284 284 285 286 286 287 288 289 289 290 291 291
288 288 288 288 288 287 287 288 288 289 288 288 288 289 289 289 290 289 288 288 288 288 288 288 288 288 288 288 288 287 287 287 287 287 287 286 286 286 286 286 286 286 285 285 285 285 285 285 284 284 284 284 283 283 283 283 283 283 283 283 283 282 282 281 281 281 281 282 282 282 282 282 282 282 283 283 284 285 286 287 288 289 289 290 291 291
288 288 288 289 289 288 288 289 289 289 289 289 288 288 288 288 289 289 288 288 288 288 288 288 288 288 288 288 288 287 287 287 287 287 287 286 286 286 286 286 286 285 285 285 285 285 284 284 284 283 283 283 282 282 282 282 281 281 281 281 281 280 280 280 280 280 281 281 281 281 281 281 281 282 282 283 284 285 286 287 288 288 289 289 290 291
288 288 288 288 288 288 289 289 289 289 289 289 289 289 289 289 289 288 288 288 288 288 288 288 288 288 288 287 287 287 287 287 287 287 286 286 286 286 286 286 285 285 285 285 285 284 284 283 283 282 282 281 281 281 280 280 280 280 280 279 279 279 279 279 279 279 279 279 279 279 280 280 281 281 282 283 284 286 286 287 288 288 288 289 290 290
289 288 288 288 288 288 288 289 289 289 289 289 289 289 289 289 289 289 289 288 288 288 288 288 288 287 287 287 286 286 286 286 286 286 286 286 285 285 286 286 285 285 285 284 284 283 282 282 281 281 280 280 279 279 279 279 278 278 278 278 277 277 277 276 276 276 277 277 278 278 279 280 281 282 282 283 285 285 286 286 287 287 287 288 289 289
289 288 288 288 288 288 288 289 288 289 289 289 289 289 289 289 289 289 289 288 288 287 287 287 287 287 286 286 286 286 286 286 286 285 285 285 285 285 285 285 285 285 284 284 283 281 280 280 279 278 278 278 278 278 277 277 276 276 276 276 276 275 274 274 275 275 276 276 277 278 279 280 281 282 283 284 285 285 286 286 286 286 286 287 287 288
289 289 289 289 289 289 289 289 289 290 289 289 289 289 289 289 289 288 288 288 287 287 286 286 286 287 287 286 286 286 285 285 285 285 285 285 285 285 285 285 284 284 283 282 281 279 278 278 277 277 276 276 276 276 276 275 275 275 275 275 274 273 273 273 274 275 276 277 278 279 280 281 281 282 282 283 283 284 284 285 285 285 285 285 286 286
290 290 290 290 290 290 290 290 290 290 290 290 290 290 290 289 289 288 288 288 287 287 287 286 286 286 286 286 286 286 285 285 285 285 284 284 284 284 284 283 283 282 281 280 279 278 277 276 276 276 275 275 275 275 275 274 274 274 274 273 272 272 272 273 274 275 276 277 278 279 279 279 279 280 280 281 281 282 282 283 283 284 284 285 285 286
Wind_Speed
2 5 5 6 9 10 11 11 13 15 15 15 12 10 9 8 10 11 9 8 8 8 11 13 15 17 15 14 13 11 11 13 16 15 13 12 12 11 12 11 12 12 10 6 6 12 15 18 20 18 17 17 17 19 21 22 25 25 25 23 21 22 25 23 21 23 22 23 25 23 25 25 25 26 26 25 26 25 25 23 22 22 22 21 22 22
2 5 6 8 11 12 13 13 14 14 13 13 10 10 9 7 9 11 11 9 5 4 9 12 14 16 15 13 12 11 12 12 14 15 14 14 14 12 13 13 13 12 6 2 5 10 13 16 20 20 18 18 19 19 21 22 24 24 24 24 23 21 23 23 24 26 24 24 25 23 22 22 22 23 24 24 24 24 25 24 23 23 23 24 24 24
4 5 8 10 10 10 12 12 12 13 12 10 8 8 7 4 7 9 8 7 4 4 8 10 10 12 13 10 9 10 11 11 12 14 14 15 14 12 13 13 11 10 7 5 6 9 12 13 16 20 20 20 20 19 20 21 22 23 22 23 24 24 24 23 26 28 28 27 27 24 21 20 21 22 23 23 23 23 24 25 25 25 26 25 24 25
6 8 11 11 9 10 12 10 8 8 8 7 6 7 5 2 5 6 3 3 5 5 7 8 8 10 11 10 8 9 10 10 12 15 14 14 15 14 12 11 10 10 8 8 8 8 9 10 12 15 19 22 21 19 20 21 21 21 21 22 21 23 25 25 26 28 28 26 26 25 23 21 21 21 21 21 22 23 24 25 25 27 29 29 28 29
6 9 11 11 11 11 10 7 6 6 5 6 7 6 2 2 4 8 6 5 6 5 6 6 7 8 10 10 9 7 7 8 10 12 13 12 13 14 12 9 10 10 8 7 8 8 8 9 11 12 16 22 22 20 22 22 22 21 21 21 20 21 23 25 27 29 29 27 26 26 24 24 24 24 23 24 24 24 25 26 27 28 30 31 33 34
5 7 8 12 13 8 5 5 4 6 5 4 6 5 2 3 8 11 10 5 4 5 6 4 6 5 3 5 5 3 5 7 7 8 10 10 11 12 11 9 6 6 7 6 4 4 4 5 7 8 10 16 18 18 21 23 22 23 22 21 21 21 21 23 25 26 28 29 28 28 26 25 26 27 28 27 26 26 26 25 27 30 30 30 33 32
4 7 7 11 13 10 5 4 2 5 5 2 2 4 4 5 8 10 9 5 4 3 2 3 6 3 1 1 2 4 5 5 5 6 8 8 7 7 7 9 12 13 12 12 12 12 10 8 6 4 5 7 9 10 15 19 19 21 22 21 21 21 20 21 21 22 25 27 27 29 30 29 28 28 27 25 24 27 28 25 25 28 30 30 31 29
5 11 10 10 10 9 7 5 3 3 5 2 1 4 5 6 8 7 6 6 4 1 1 3 5 4 4 3 5 5 5 3 2 3 6 9 11 13 14 15 17 16 15 13 13 14 13 13 11 9 8 4 5 7 11 15 15 17 19 19 19 20 21 22 22 21 22 24 25 27 29 31 31 31 29 25 22 25 28 28 27 28 29 30 30 30
4 9 12 12 10 8 7 9 9 6 4 3 4 3 5 5 6 5 4 5 4 2 3 4 4 4 3 2 3 3 4 5 8 13 16 17 17 17 17 17 16 15 16 14 13 13 13 15 16 16 15 10 2 5 10 13 14 14 16 15 14 16 20 22 24 23 23 23 25 26 28 30 32 32 31 28 25 24 25 27 29 29 29 30 31 32
5 5 8 9 9 9 10 10 8 5 3 4 5 5 6 3 3 3 2 2 1 3 1 2 4 4 0 2 2 2 5 9 12 15 16 16 17 16 16 16 15 14 14 14 14 14 16 17 17 18 21 20 15 7 2 7 10 14 16 15 14 18 20 21 22 23 24 24 25 27 28 29 30 30 29 27 27 26 25 25 26 27 29 29 28 30
8 4 1 2 5 8 10 8 4 3 2 4 5 4 5 3 1 2 1 1 2 2 2 1 4 5 1 3 6 7 8 10 11 12 14 16 17 16 15 14 15 14 13 13 14 15 19 21 21 21 22 21 21 19 13 6 4 11 15 16 17 19 19 19 20 21 23 25 26 28 28 29 30 29 27 25 25 25 25 25 25 25 28 28 26 26
9 2 2 2 1 8 11 4 1 3 4 3 3 3 3 2 2 1 1 1 0 3 4 3 4 6 3 5 9 10 11 14 13 13 15 16 16 15 14 14 14 14 14 14 13 14 16 19 21 23 22 19 20 22 22 18 13 9 10 12 14 15 15 17 19 20 22 25 26 27 28 29 30 29 29 28 26 25 26 26 26 26 26 26 25 24
7 2 8 6 1 9 14 6 3 2 3 5 4 3 3 1 0 1 1 1 1 3 5 4 2 4 5 8 9 11 13 15 14 13 14 15 15 15 14 14 13 13 14 14 14 14 13 14 17 20 21 20 20 22 23 24 24 22 19 15 13 13 14 15 18 21 23 25 27 28 28 28 28 29 31 32 30 29 29 27 28 28 26 24 24 23
5 0 8 10 3 9 13 8 6 6 6 9 7 5 4 2 3 4 3 2 1 3 5 3 1 2 7 8 9 12 13 13 13 13 12 14 14 14 15 15 14 14 15 13 13 14 13 14 17 19 20 21 21 23 24 25 27 27 26 25 22 19 16 14 17 21 23 25 27 28 28 29 27 27 29 31 32 31 30 28 28 29 27 25 25 25
6 2 7 11 7 10 11 6 5 7 7 6 5 4 4 3 3 4 3 4 3 2 3 2 1 2 5 4 5 8 10 11 12 12 12 14 14 13 14 16 16 16 15 14 13 15 15 17 20 20 21 22 22 24 25 26 27 27 26 26 25 23 21 18 16 18 22 25 25 25 27 29 29 28 28 28 30 30 30 29 28 29 29 28 29 31
6 4 4 8 8 9 11 7 6 7 4 3 4 2 3 4 3 3 2 2 4 2 2 2 2 3 5 6 3 6 9 13 13 14 16 16 15 14 14 16 16 15 15 14 14 15 17 20 22 23 23 24 24 26 27 27 27 26 25 25 24 24 25 23 21 18 20 23 25 25 27 28 29 28 28 29 30 30 31 30 30 29 29 30 31 33
5 6 6 10 9 9 11 8 6 6 3 3 4 4 5 4 3 4 2 3 4 0 2 1 4 4 4 5 6 10 13 16 17 18 18 17 18 17 16 15 15 15 15 15 15 15 17 21 23 23 25 26 26 26 27 28 28 26 25 26 25 25 27 27 26 24 22 21 22 25 28 30 30 29 30 30 31 31 31 31 32 30 29 31 34 34
4 8 6 7 10 12 11 7 3 4 5 3 5 6 7 4 2 3 3 2 3 2 2 1 3 4 5 2 7 14 16 17 17 18 18 18 19 18 16 16 16 16 15 15 16 16 19 22 23 24 24 26 27 27 27 28 28 28 27 27 26 26 27 27 27 26 25 24 23 23 25 27 30 32 34 34 32 32 31 32 36 34 32 34 36 36
4 7 3 2 9 12 10 6 2 5 7 3 2 5 4 1 2 4 3 2 4 3 2 2 1 1 3 3 7 12 14 14 15 16 18 19 19 17 15 15 16 15 14 15 15 15 17 21 24 25 25 25 26 26 27 27 28 30 30 29 29 27 25 27 27 27 28 27 25 24 24 24 26 29 32 34 33 31 32 35 38 37 37 37 35 34
3 4 1 2 10 11 6 5 3 5 6 1 0 4 4 3 3 4 3 2 3 3 3 4 3 4 6 5 7 11 12 13 14 13 14 16 17 15 14 14 14 14 13 13 13 13 15 20 23 25 25 25 25 25 27 27 28 30 30 30 32 30 29 29 29 29 30 30 29 28 27 25 23 25 28 30 31 31 31 35 37 37 38 37 35 35
2 2 4 6 11 8 1 5 4 5 6 5 5 7 7 4 1 1 2 2 3 4 3 3 2 4 5 4 8 11 11 12 13 12 11 12 13 13 13 13 12 13 13 13 13 13 15 19 22 23 24 25 24 25 27 27 27 28 29 30 31 31 31 31 30 30 31 32 31 31 31 29 26 24 24 26 29 30 32 33 35 37 37 35 34 35
2 2 5 8 8 5 2 3 2 4 5 6 6 6 6 6 3 2 1 3 2 3 3 4 4 2 4 4 8 10 10 11 12 12 11 11 12 12 11 12 12 12 12 13 13 13 16 20 22 23 24 25 26 27 28 27 27 28 29 30 30 29 29 30 30 30 30 31 32 32 33 33 30 27 24 24 25 27 30 31 32 34 35 34 35 34
3 3 5 7 6 7 6 2 2 2 3 4 6 5 5 5 4 3 3 3 3 2 1 3 3 1 4 4 8 9 10 11 11 12 12 11 11 11 10 11 11 11 11 12 12 13 16 19 21 23 25 26 26 26 28 28 28 28 28 30 31 30 30 30 29 30 31 31 31 33 34 34 33 31 29 26 24 24 25 27 29 31 32 34 35 32
3 2 4 7 6 4 2 2 3 0 1 2 4 5 5 4 4 3 4 4 3 3 2 2 3 2 6 2 6 9 11 12 11 12 12 10 9 10 10 10 9 10 11 11 12 13 16 19 20 22 24 25 26 26 27 27 27 28 28 29 31 31 31 31 30 31 33 33 34 36 35 34 35 36 34 30 28 27 26 25 26 28 30 32 33 32
2 1 3 6 5 2 2 3 1 1 2 4 3 2 4 5 4 3 3 2 2 3 2 3 4 3 6 1 9 12 14 14 11 10 11 10 9 9 9 8 8 9 10 12 12 13 15 17 19 21 22 23 24 25 26 27 27 28 28 29 30 30 31 32 31 32 33 33 36 39 37 34 35 36 37 36 34 33 32 29 27 26 27 29 31 32
2 2 3 3 4 3 3 3 3 4 5 5 4 4 5 5 4 3 2 2 3 2 1 5 6 1 1 9 13 13 13 13 11 10 9 9 9 8 8 7 8 8 10 12 13 13 14 16 18 21 22 22 22 23 24 26 27 28 28 29 29 29 31 31 31 33 33 33 34 35 34 33 34 35 37 38 37 36 35 33 30 28 27 27 28 29
1 2 4 5 5 6 7 8 7 7 8 9 10 12 10 6 4 4 3 3 3 3 5 8 9 10 12 13 11 10 12 11 10 10 10 10 10 9 8 8 7 8 9 11 12 13 15 17 19 23 23 23 23 23 23 24 24 26 27 28 29 29 30 31 31 32 33 32 32 31 31 34 35 35 35 36 37 38 37 36 34 32 30 28 27 28
1 3 5 7 10 11 11 13 12 10 11 13 14 15 13 10 6 5 6 6 3 4 6 7 7 11 13 12 9 9 9 9 10 10 10 10 11 10 9 9 8 9 10 11 12 14 15 15 18 22 25 25 25 26 26 25 24 24 25 27 28 27 28 30 31 31 31 30 30 30 32 34 35 34 36 39 41 40 38 37 37 35 33 31 29 29
1 4 3 3 9 12 12 13 13 12 13 12 13 15 14 13 10 9 11 11 7 7 9 7 8 12 15 13 8 5 5 7 9 10 9 10 12 12 11 10 9 9 11 12 12 14 14 15 17 21 24 25 26 27 27 27 27 27 26 27 26 26 27 29 30 30 29 28 29 30 32 34 33 33 36 40 42 42 41 40 39 37 34 33 32 30
1 3 1 2 8 12 14 14 12 11 12 13 15 16 14 13 13 13 13 12 12 14 15 15 17 18 16 11 5 2 2 5 6 8 9 12 14 14 11 10 9 9 11 12 13 14 14 15 18 21 24 25 26 27 27 27 28 29 29 28 27 26 27 28 28 28 28 28 29 30 31 32 32 33 34 35 36 38 40 41 40 38 37 35 32 31
3 1 2 1 5 9 10 9 7 9 11 14 17 17 14 13 13 12 12 11 10 12 15 15 17 16 9 2 2 2 3 4 6 8 10 11 14 14 12 9 8 10 12 13 14 14 14 16 19 22 23 24 25 25 25 26 27 28 29 29 28 28 27 27 27 27 27 28 29 29 30 30 31 32 32 33 33 33 37 41 42 41 39 36 33 32
2 1 1 2 4 5 4 5 8 11 12 14 17 16 12 10 8 7 7 7 7 8 11 12 12 10 3 3 3 4 5 6 8 9 10 11 13 14 11 9 9 12 14 16 16 16 15 16 19 22 23 23 23 24 24 26 27 28 28 29 30 30 29 27 27 26 25 26 27 29 29 29 30 31 31 32 33 34 37 40 43 42 40 39 37 34
1 2 1 1 4 4 3 6 10 11 9 7 6 6 5 6 5 5 6 7 8 8 9 9 7 4 2 3 4 5 6 8 9 9 9 12 13 12 9 8 10 13 16 17 17 16 16 17 20 24 24 23 23 23 23 25 26 27 27 28 29 29 29 29 28 26 26 26 26 27 27 28 29 30 31 32 34 36 37 37 37 38 40 42 40 36
2 3 2 1 3 4 4 8 9 7 5 1 2 2 2 4 5 8 10 10 10 8 7 7 6 3 2 4 5 6 7 9 9 9 9 11 11 9 7 8 11 15 17 17 16 16 18 20 23 25 25 25 25 25 24 24 24 26 27 27 28 28 28 29 29 28 27 27 26 26 26 27 28 28 30 31 33 35 35 34 34 35 37 39 38 36
4 4 3 2 3 4 5 6 6 4 1 4 8 9 8 8 9 11 14 15 12 9 8 8 7 5 4 5 6 7 8 9 10 11 11 11 9 6 6 10 13 16 17 16 16 17 20 23 25 26 26 26 26 26 26 26 25 26 26 26 27 27 26 27 28 28 28 28 28 28 27 27 28 28 29 30 31 33 34 33 33 33 34 34 35 37
5 5 3 2 3 3 3 2 3 4 6 11 16 12 6 6 6 8 12 11 7 6 8 9 7 5 4 6 7 8 9 10 10 11 10 8 5 4 7 12 14 16 17 18 18 20 22 23 25 27 27 27 27 27 28 28 28 27 27 26 26 26 26 26 26 27 28 28 29 29 28 28 29 29 30 30 29 30 31 33 34 33 32 33 35 36
7 5 3 3 3 3 4 5 6 9 10 9 6 1 2 1 1 2 7 7 5 7 10 8 6 4 5 7 9 10 10 10 9 8 6 5 5 5 10 13 14 17 19 22 23 23 23 23 24 26 27 27 28 28 28 29 29 28 28 27 25 25 25 25 25 26 27 28 27 28 29 30 29 30 32 32 31 30 29 31 34 35 32 31 31 31
8 6 3 3 3 3 3 6 7 7 6 3 3 3 3 3 4 3 5 9 8 9 8 6 5 5 6 8 10 11 10 10 10 7 5 4 5 8 12 13 15 18 20 23 25 24 24 23 24 25 26 26 28 28 28 28 29 29 29 28 26 26 25 25 26 26 27 27 28 28 29 30 30 30 31 32 33 33 31 31 34 36 34 30 29 29
8 5 3 3 3 3 4 6 4 4 6 5 2 4 6 4 3 3 7 9 4 5 8 6 5 6 7 9 11 9 9 10 11 8 7 9 10 10 11 13 15 18 20 22 24 24 24 24 24 25 24 24 26 27 27 28 29 28 28 28 27 26 26 25 25 26 27 28 29 29 29 29 30 30 30 31 32 33 33 33 34 35 36 33 29 29
6 4 4 5 5 5 6 7 5 6 8 8 7 4 5 3 3 4 7 5 2 7 8 5 5 8 9 10 10 8 9 11 12 11 13 13 13 12 13 14 16 18 20 22 23 24 24 24 24 24 23 23 25 26 27 27 27 26 27 28 28 27 26 26 26 27 28 29 29 30 29 29 29 30 30 30 31 32 33 34 34 34 35 35 34 31
3 3 5 6 7 7 8 8 7 7 9 12 14 9 3 4 1 5 7 2 4 7 7 5 8 10 10 11 10 9 11 13 14 15 15 13 13 14 16 18 19 20 20 21 22 23 23 23 23 22 23 24 24 24 24 24 25 26 27 27 27 27 27 27 27 28 29 29 29 30 30 29 29 30 31 31 30 31 33 33 33 33 34 35 35 33
3 2 3 5 6 6 7 8 8 7 8 12 13 6 5 4 5 6 3 1 4 6 7 7 10 11 12 13 12 11 13 16 16 17 16 14 13 14 16 19 21 21 21 22 22 21 22 22 22 22 24 24 24 23 23 23 24 26 27 27 27 28 27 27 28 29 29 29 30 30 30 30 30 30 31 31 30 31 33 33 32 32 32 32 32 33
5 3 3 5 5 4 4 5 6 6 5 7 6 4 7 7 6 3 1 2 5 7 9 9 10 11 12 13 14 15 17 18 18 17 16 16 15 15 17 19 20 22 23 22 22 22 22 22 22 23 24 23 23 23 23 23 24 25 26 27 29 28 26 26 28 29 28 29 30 30 29 30 31 31 31 31 31 32 33 34 33 32 31 29 29 30
6 5 4 3 5 4 5 6 6 4 2 5 5 4 7 8 5 2 4 6 7 8 9 9 10 10 11 14 16 18 19 19 18 18 17 17 17 16 17 19 21 23 23 23 24 24 23 22 22 22 23 23 23 25 24 23 23 24 26 28 29 26 24 25 28 29 29 29 29 29 29 29 32 34 33 33 33 32 33 33 32 31 29 26 25 25
9 10 6 4 6 7 6 7 7 3 2 5 7 7 10 10 7 6 8 10 10 9 8 9 11 12 13 14 16 17 17 16 16 17 17 18 18 17 18 20 22 23 23 23 25 24 22 21 20 20 22 23 25 27 26 24 22 24 27 27 24 22 23 26 28 28 28 29 29 29 30 32 34 35 34 33 32 30 31 31 29 28 27 25 23 22
9 10 6 4 6 7 9 13 14 13 13 12 10 9 11 12 11 10 11 11 10 11 10 10 12 14 14 14 14 14 14 14 15 16 17 17 17 18 20 21 21 22 23 23 23 22 20 17 18 19 21 24 27 28 27 26 24 25 26 24 21 21 24 26 28 28 28 29 30 30 30 31 32 32 32 31 29 28 28 28 27 26 26 25 24 22
9 11 8 6 5 5 8 12 16 19 18 15 14 13 13 14 13 11 11 11 11 12 13 12 14 15 14 14 14 14 16 17 18 17 16 15 16 17 19 21 20 20 22 22 22 21 18 15 17 18 19 23 27 27 26 26 26 26 26 23 20 21 23 25 27 28 29 30 30 29 27 28 29 30 30 29 28 27 27 27 26 25 25 25 24 23
5 8 10 10 9 9 12 14 16 19 17 13 13 14 12 14 16 13 12 12 12 13 13 13 14 13 11 12 14 15 18 19 19 18 16 15 15 15 16 19 21 20 19 19 20 21 19 16 17 18 19 23 26 25 24 26 30 33 30 23 20 21 23 26 28 29 29 30 29 27 26 27 28 29 29 28 27 27 28 27 26 26 26 26 25 24
4 6 7 7 9 10 14 17 18 18 16 15 17 17 13 13 14 13 12 12 12 12 13 13 13 12 11 13 15 16 18 18 17 18 17 16 15 16 18 22 22 19 16 17 20 21 20 20 20 20 22 25 25 24 25 28 35 39 34 25 23 25 27 28 29 28 28 28 27 26 26 26 26 26 26 27 27 28 28 29 28 28 30 31 30 29
6 8 7 6 9 11 12 15 14 11 11 12 13 14 12 11 12 13 13 12 11 11 12 12 14 15 15 16 16 15 16 17 17 18 17 16 16 19 22 23 21 16 14 16 20 22 22 24 26 25 26 29 29 27 27 31 36 40 36 30 30 29 26 26 27 27 27 28 26 25 25 25 25 25 25 27 29 30 32 34 33 32 34 36 37 37
11 13 11 10 13 13 13 14 11 9 10 12 11 11 10 9 10 13 13 13 12 12 12 13 14 15 16 17 18 17 15 16 19 20 17 17 20 22 22 19 17 15 14 15 18 20 22 26 27 26 29 33 32 29 29 31 34 38 38 36 33 28 25 26 27 26 26 25 24 24 26 27 28 29 28 27 28 30 33 35 37 37 37 38 40 41
Wind_Direction
358 323 324 309 309 302 297 291 281 280 280 280 275 264 262 262 269 278 281 270 265 277 267 253 256 260 261 262 262 261 254 256 262 263 261 260 262 266 267 264 260 254 247 248 219 190 196 208 203 195 196 202 209 216 219 218 219 220 220 219 215 213 212 209 207 210 213 214 216 219 221 223 225 226 226 226 226 224 224 223 222 223 225 225 226 225
314 332 338 325 319 308 300 298 290 278 268 267 265 262 255 252 274 286 284 268 230 239 267 262 262 262 263 266 265 265 258 253 259 264 265 263 261 261 263 265 264 261 253 215 215 205 204 211 205 197 194 198 204 210 217 219 220 221 221 223 225 219 212 207 206 208 209 210 211 214 218 222 225 225 225 226 225 225 225 223 222 224 226 226 229 230
336 342 335 323 317 304 293 295 290 271 250 243 248 259 258 269 306 302 284 266 237 229 258 268 271 268 267 268 266 265 261 256 257 261 264 267 267 264 261 264 263 259 252 235 228 215 212 216 207 196 190 196 204 205 211 220 223 222 221 223 227 226 222 217 214 212 214 216 215 217 221 224 227 228 228 228 226 225 225 225 224 225 226 228 230 232
343 334 326 315 303 298 291 286 278 265 245 232 242 256 260 359 339 304 316 332 302 268 264 279 280 273 272 268 262 261 262 258 254 255 257 262 267 269 270 272 272 267 254 239 233 221 215 214 209 196 185 193 204 203 206 215 217 218 221 222 223 226 227 227 225 221 220 222 220 223 227 229 233 235 233 233 231 228 225 226 226 228 232 236 236 238
321 311 316 311 299 297 293 279 247 250 257 234 245 254 243 28 292 279 301 321 301 265 248 272 274 268 267 262 259 259 263 261 256 256 255 255 262 270 274 273 272 273 269 250 234 224 214 210 215 210 193 194 198 198 207 215 215 214 217 219 222 226 230 232 233 232 228 226 225 227 230 232 236 240 239 237 236 233 231 232 235 238 241 242 244 245
314 306 316 320 320 327 309 285 238 243 261 233 239 251 255 293 278 281 291 288 263 225 204 225 256 266 254 245 261 289 288 277 271 270 266 260 260 267 275 287 305 316 325 332 320 293 270 252 245 237 216 202 196 198 210 218 219 219 218 219 223 227 232 235 238 238 233 229 228 229 231 232 234 237 237 237 238 239 239 240 243 245 245 245 246 243
295 300 314 328 338 1 352 305 208 210 248 270 208 213 233 266 272 286 290 259 228 217 157 186 235 251 38 327 1 352 319 306 287 274 277 281 287 303 326 359 21 25 21 21 21 16 6 352 338 305 285 240 213 214 221 221 222 224 225 224 228 232 234 236 238 240 237 233 231 230 232 234 237 239 240 238 238 241 242 244 246 245 245 247 245 237
306 306 329 343 344 3 1 330 326 243 246 322 48 200 231 256 264 291 288 245 245 323 119 198 227 252 283 335 22 359 332 346 347 347 7 12 20 28 32 35 37 37 38 38 34 32 28 19 19 14 358 320 237 236 232 221 217 228 233 230 230 236 240 241 242 243 241 238 237 234 234 236 238 241 244 242 240 241 242 243 245 246 246 247 245 241
316 316 336 338 343 3 350 323 320 299 256 332 360 253 244 266 274 298 279 248 265 262 202 182 196 239 270 11 23 351 349 15 37 46 43 38 38 41 40 39 39 41 43 44 38 34 32 29 32 35 32 24 330 236 223 210 206 226 235 226 228 245 252 251 249 247 243 239 239 238 238 241 242 242 243 243 242 242 240 241 242 243 244 244 246 247
306 306 327 331 350 354 328 315 316 310 285 327 332 264 245 273 296 300 278 246 220 226 232 121 177 225 284 41 359 2 14 16 37 49 47 44 42 40 39 36 34 36 38 39 36 32 28 25 30 41 44 39 33 28 252 214 211 223 224 223 248 270 270 262 254 250 247 243 240 241 241 242 245 245 243 242 241 240 238 239 240 240 240 239 241 244
311 276 280 342 345 329 314 306 302 290 270 292 299 273 261 261 278 317 306 237 164 143 42 36 200 213 184 60 45 47 37 32 48 53 45 43 41 37 36 33 31 33 33 33 33 29 24 20 21 32 39 38 37 37 33 16 273 245 240 246 265 277 279 272 262 256 253 247 243 243 242 242 244 245 243 240 239 237 235 237 239 238 239 237 235 236
331 337 15 338 304 334 326 306 227 231 229 267 290 292 294 251 215 210 182 248 145 84 29 336 215 201 178 61 52 52 49 47 51 49 44 42 40 38 35 31 31 31 30 30 28 26 23 19 17 20 25 26 28 30 29 26 13 343 307 289 282 281 286 285 278 271 262 252 245 243 243 243 244 244 242 239 238 237 235 236 237 236 236 235 232 232
340 8 352 340 131 0 348 348 7 308 302 356 357 318 320 321 351 58 87 358 63 72 19 353 204 170 98 59 51 52 50 49 50 50 48 44 42 39 34 30 30 29 28 28 25 23 21 18 16 13 13 16 19 18 16 17 17 12 4 354 336 314 306 298 289 281 268 255 247 243 241 243 244 244 242 241 242 243 241 238 235 232 231 231 230 230
348 263 3 4 7 1 2 6 2 342 340 358 0 345 353 8 14 25 33 7 41 51 24 14 234 122 84 59 42 48 47 46 51 50 46 45 44 41 35 32 30 28 28 26 25 24 21 17 14 12 11 11 13 13 10 11 12 11 11 9 3 350 338 322 301 288 276 262 251 246 243 243 243 243 243 244 245 246 246 244 239 234 233 232 231 232
342 303 14 13 344 340 0 7 333 303 301 336 337 331 12 22 5 7 4 351 350 6 25 19 302 46 91 91 36 39 43 43 47 46 43 45 43 40 37 33 29 26 23 22 23 23 22 18 14 12 13 11 10 11 10 9 8 8 9 9 6 1 355 347 329 307 292 282 271 261 253 248 246 245 245 246 246 245 246 247 243 238 238 238 238 240
327 286 346 353 315 325 350 347 321 308 292 329 327 313 13 8 328 317 326 320 312 329 38 45 70 60 98 116 60 19 33 35 34 35 35 35 34 35 35 31 27 22 18 17 17 19 20 20 17 14 12 12 11 11 11 10 8 7 6 5 4 3 2 359 351 335 314 300 291 283 272 264 259 255 251 249 248 247 247 248 247 243 241 241 242 244
334 292 322 339 330 348 357 335 329 350 331 303 340 1 340 314 270 307 315 245 272 18 81 63 101 112 146 128 43 22 27 25 24 28 28 27 27 29 30 26 22 20 18 17 16 17 18 19 20 18 15 13 11 11 11 11 10 9 7 5 4 3 3 3 360 354 342 324 309 297 287 280 274 269 263 257 253 252 252 252 253 252 247 245 247 246
336 293 306 347 346 351 348 313 275 6 358 339 9 352 311 268 211 309 333 303 318 23 98 87 121 151 170 143 20 21 24 19 19 22 23 25 25 25 23 20 18 17 17 19 20 18 17 18 19 19 18 16 13 11 10 10 11 11 10 8 7 4 3 2 360 358 354 345 332 316 302 292 284 277 272 267 263 261 260 259 259 257 253 250 250 249
325 298 278 61 355 340 337 322 271 6 16 58 24 330 314 352 16 351 355 347 345 350 9 35 53 68 79 65 24 27 27 18 17 20 22 24 22 21 18 15 16 17 18 21 21 19 17 16 15 15 15 15 14 12 9 7 8 10 10 9 9 6 4 3 1 360 357 354 346 335 324 311 296 285 278 274 271 266 263 263 263 259 256 254 253 252
325 310 274 25 348 325 321 3 5 2 15 85 307 357 11 358 346 9 8 328 336 337 342 6 17 51 64 64 54 48 39 27 24 24 26 23 19 17 15 12 14 17 20 22 20 19 17 14 13 11 10 10 10 10 9 7 6 6 5 5 5 3 2 3 2 0 358 354 351 347 341 332 317 301 290 283 278 272 264 261 261 260 258 258 256 253
324 302 279 319 333 319 356 46 11 352 9 20 24 23 16 357 316 347 11 19 353 332 334 338 354 80 82 63 60 57 47 39 33 29 31 24 17 15 12 11 14 17 20 17 16 15 12 11 11 9 8 6 6 7 8 7 5 3 2 1 1 360 360 360 359 358 356 353 351 349 347 345 337 322 308 296 287 281 273 266 263 262 262 261 258 254
346 299 285 306 328 331 18 45 342 329 10 28 38 32 15 14 8 322 6 53 2 324 333 318 314 87 103 65 56 57 52 48 38 31 29 22 17 13 8 11 16 19 18 13 12 11 8 8 6 5 5 5 4 4 4 3 3 1 0 359 357 357 357 356 355 355 353 351 349 349 350 351 348 340 330 315 300 289 282 277 272 269 267 265 262 259
330 296 291 301 304 304 310 351 36 325 343 40 57 50 25 18 12 345 340 2 343 314 316 296 299 136 137 77 53 58 54 50 44 35 28 20 16 11 6 10 14 15 15 12 11 10 8 7 4 3 3 3 3 2 360 360 359 358 357 355 354 354 353 353 352 351 351 350 347 347 349 350 348 346 342 333 319 305 294 286 280 275 271 267 265 262
315 288 301 303 296 293 298 95 87 268 262 34 43 40 31 20 9 337 317 332 315 281 282 261 275 206 176 156 40 51 44 39 41 32 22 18 13 8 5 7 10 9 9 9 9 8 7 6 5 4 2 1 0 359 358 356 354 353 353 352 351 350 350 351 350 349 350 349 347 347 348 347 347 348 346 340 331 324 316 304 290 281 274 270 267 264
323 318 315 313 316 353 116 137 136 259 305 336 336 1 15 7 352 317 299 305 271 280 293 256 265 181 157 306 1 23 23 21 28 25 18 11 5 4 2 0 5 5 4 6 5 5 6 6 5 3 0 358 356 355 355 353 351 349 348 348 348 347 347 349 348 347 347 347 346 347 346 345 346 347 346 344 340 336 331 323 309 294 283 276 271 266
290 321 316 322 331 333 327 323 327 324 321 318 301 300 323 334 323 307 294 260 258 288 232 238 261 277 310 322 344 8 8 3 9 12 11 4 357 358 354 352 359 1 2 4 2 1 2 1 1 359 357 355 352 351 350 349 348 346 343 344 345 345 345 346 347 346 345 344 343 343 343 343 342 342 343 343 342 340 337 332 324 312 298 286 278 272
256 295 268 256 261 267 287 303 315 322 308 296 294 299 303 303 290 284 274 250 252 284 265 249 262 279 289 303 330 356 356 349 352 358 360 355 350 350 349 346 350 356 1 0 359 359 358 356 356 355 353 351 349 347 345 344 344 344 342 341 341 342 342 343 344 344 342 341 340 339 340 340 340 339 339 339 340 341 340 337 334 326 315 303 289 278
329 294 272 255 255 258 277 290 297 302 290 284 290 293 293 294 282 250 241 246 268 299 275 248 253 273 282 297 324 348 348 341 343 349 349 346 342 343 344 340 341 351 356 356 356 356 354 353 352 350 349 348 345 343 342 341 340 341 340 338 338 339 340 340 340 339 339 339 338 337 337 337 337 337 337 338 340 342 341 340 338 333 325 316 303 288
316 280 285 275 270 271 278 282 287 290 283 279 280 278 281 285 275 255 249 247 244 252 259 265 281 284 285 296 317 353 348 334 338 340 339 339 338 338 338 334 336 348 352 350 350 350 350 350 348 346 344 342 341 341 340 339 338 337 336 335 336 337 338 338 337 336 336 337 335 335 334 334 334 334 334 337 339 340 341 341 340 337 332 325 316 303
262 264 321 305 286 282 279 279 281 279 277 277 274 270 274 276 270 265 262 255 243 246 258 273 282 281 282 292 315 13 337 323 328 332 338 340 336 333 333 330 334 345 346 344 344 344 346 346 343 341 340 338 337 338 337 336 336 334 333 332 332 334 336 337 335 333 333 332 332 332 332 332 333 332 332 333 334 335 338 339 339 338 336 330 322 313
305 337 49 346 288 282 281 283 278 274 281 285 281 277 273 270 267 260 256 253 245 249 260 266 273 277 280 306 5 347 327 320 324 332 338 337 330 327 327 330 337 341 340 340 340 339 339 340 339 338 336 334 333 332 332 332 331 330 329 328 329 329 330 332 332 330 329 328 328 329 330 330 331 331 330 330 330 331 332 334 336 336 338 336 328 320
302 294 31 10 297 283 289 304 295 292 292 283 279 279 264 246 248 241 234 230 225 251 268 264 266 276 298 52 2 328 330 328 329 335 335 329 324 321 323 330 337 339 338 338 336 334 334 335 335 334 331 329 328 327 327 327 326 325 324 325 326 325 325 327 327 326 326 326 326 327 327 328 328 329 329 328 328 329 329 331 334 335 336 336 332 326
249 255 313 339 287 282 306 312 308 308 300 274 271 287 240 199 209 230 232 231 233 257 278 273 272 293 349 352 320 317 329 328 326 331 328 321 317 315 316 324 333 336 337 334 330 327 328 330 330 329 326 324 324 323 322 321 320 319 319 320 321 322 322 323 322 322 322 322 323 325 325 326 326 326 327 327 326 327 328 328 328 330 332 333 333 330
174 226 248 223 268 288 304 308 305 295 287 312 34 342 239 204 231 251 262 270 268 265 268 273 285 302 302 299 302 312 320 317 315 316 311 305 303 304 307 318 329 333 331 327 322 320 321 323 323 323 322 321 320 319 318 317 314 314 316 317 318 318 319 319 320 320 321 320 320 321 322 324 324 323 323 324 325 325 326 325 323 325 329 330 331 329
181 200 219 215 248 280 302 312 299 265 264 343 314 289 265 252 256 262 270 274 271 261 254 260 261 250 259 284 296 303 305 304 303 298 290 288 285 282 301 318 325 326 322 319 316 313 313 316 317 318 317 317 317 316 316 315 314 313 314 315 316 315 315 315 317 317 317 318 318 319 320 322 322 321 320 321 323 323 323 323 321 322 324 325 325 325
198 191 209 220 226 267 299 293 270 287 314 305 292 285 273 258 258 267 269 264 247 232 241 250 245 230 258 285 294 303 305 304 299 284 271 263 242 251 301 316 318 316 314 312 308 305 305 309 311 312 312 312 313 314 313 313 314 313 312 313 313 311 311 312 313 315 314 314 316 318 319 320 319 319 319 319 320 320 320 320 320 320 321 321 322 323
199 187 199 222 210 231 276 267 272 297 307 292 270 261 73 67 77 321 287 274 249 238 240 241 237 240 273 290 302 311 309 304 302 288 260 212 190 248 288 302 305 304 304 302 300 296 296 299 302 305 306 307 308 309 309 310 312 312 311 312 311 309 310 310 310 312 312 311 313 315 316 317 317 316 316 317 316 315 315 317 316 317 318 318 317 317
203 200 202 226 218 208 269 289 291 294 291 247 169 135 102 82 85 59 307 289 269 244 224 207 220 251 282 298 305 311 309 301 301 302 281 242 240 271 284 287 290 292 294 295 294 291 290 293 297 300 301 302 303 304 306 308 310 310 309 310 310 309 308 308 308 310 310 309 311 312 312 313 312 312 312 313 313 312 312 312 313 313 314 314 311 310
205 226 232 246 254 224 249 276 274 260 265 265 224 144 128 108 69 12 302 292 270 189 173 178 231 270 289 297 298 302 304 297 296 306 306 292 288 289 287 283 283 283 285 287 286 286 287 291 294 295 296 296 297 301 304 306 307 307 306 306 308 308 306 306 307 308 308 307 308 308 309 308 308 307 308 308 309 309 309 309 310 310 311 311 308 305
193 223 223 226 240 226 235 257 253 246 258 266 266 229 156 122 29 325 288 281 151 153 169 189 268 281 284 290 290 289 293 294 295 304 306 298 290 286 281 279 281 282 282 282 281 281 285 289 291 291 293 294 295 299 302 303 303 302 301 303 304 304 304 306 308 307 306 305 306 305 305 305 305 304 304 304 306 306 305 306 307 307 308 309 308 306
185 216 212 221 234 226 230 250 258 256 256 259 266 264 171 121 201 253 260 261 136 167 192 227 270 279 283 290 291 288 288 290 289 292 295 291 285 283 280 279 281 281 279 278 277 279 283 286 287 288 290 292 294 297 298 299 300 299 299 301 300 299 302 306 308 306 305 304 304 303 303 303 303 302 302 302 303 303 302 302 302 303 304 305 306 305
179 193 201 213 230 227 226 248 271 279 262 250 255 247 139 151 231 234 238 98 151 200 233 255 272 285 291 288 286 284 284 285 285 286 287 286 282 282 283 284 285 285 282 280 278 278 281 285 286 287 290 293 294 295 296 296 296 295 297 297 295 297 304 308 306 305 306 305 303 301 301 302 301 301 301 300 301 302 301 299 299 300 300 301 301 301
172 183 208 198 204 209 208 229 261 277 248 211 210 168 154 197 245 261 246 213 213 246 275 279 277 283 285 283 283 283 284 286 287 287 287 287 285 283 283 284 286 286 286 285 284 283 283 285 287 288 290 293 293 293 295 294 292 292 294 293 293 299 306 305 303 305 306 304 302 300 300 301 301 301 299 298 299 300 298 297 297 297 296 296 296 295
175 192 217 198 189 186 186 203 221 245 224 182 191 211 213 217 235 286 281 270 267 275 285 284 278 274 274 280 286 288 289 288 288 288 289 288 288 287 284 284 284 284 284 283 283 284 283 283 285 287 288 291 292 293 293 292 291 291 290 290 295 302 304 301 302 305 304 302 301 300 300 301 300 299 297 295 296 296 294 293 294 295 295 293 290 288
192 194 206 222 215 201 204 225 231 243 241 207 211 238 249 247 253 267 273 279 283 281 280 283 284 280 276 279 283 285 287 285 284 288 289 289 290 289 286 284 283 282 282 280 279 280 280 279 282 285 287 289 291 292 292 291 289 288 287 291 298 303 301 301 302 302 301 299 297 297 298 299 298 296 294 293 292 291 290 290 291 292 292 291 288 284
211 209 218 242 237 231 240 245 247 255 256 245 237 242 248 255 262 263 265 269 270 273 276 277 280 283 283 282 282 282 283 284 284 285 286 286 286 286 285 284 281 278 279 279 279 279 279 280 282 284 285 288 291 292 292 291 290 287 288 294 300 301 299 301 301 299 298 296 295 295 297 298 296 293 292 292 290 287 285 286 288 289 289 289 287 284
227 224 229 235 228 234 242 236 237 246 249 248 253 255 252 255 259 256 258 261 262 267 272 272 275 280 281 279 279 280 283 287 287 285 285 284 281 280 281 282 281 279 277 278 281 284 286 285 285 284 286 288 291 292 293 292 291 289 291 297 301 300 300 300 298 297 296 293 293 295 297 297 296 293 292 292 290 287 286 284 284 285 285 285 285 284
207 208 221 231 228 232 246 249 247 250 249 250 260 264 261 260 259 254 254 258 262 266 269 268 270 275 277 276 277 279 282 285 286 284 284 284 280 279 279 279 279 278 274 273 280 288 291 290 285 285 287 287 288 291 293 291 291 292 295 299 299 300 302 300 296 293 291 289 290 292 293 294 294 292 291 290 289 288 286 284 283 282 281 279 279 281
165 188 201 223 236 241 251 255 255 256 256 253 251 251 253 257 258 258 259 261 261 263 264 264 263 262 264 268 273 278 280 280 281 280 281 282 282 282 281 281 280 277 273 274 282 288 291 289 287 287 287 285 286 290 290 289 292 296 297 296 298 302 302 297 293 291 288 287 287 287 288 290 290 289 290 291 291 290 287 284 282 282 282 279 275 273
194 220 210 223 249 250 247 247 247 252 260 256 245 242 248 257 260 263 266 263 257 254 258 265 268 265 264 264 266 271 275 277 279 280 280 281 283 283 283 283 282 279 276 280 287 289 289 288 287 287 286 285 286 288 288 289 292 295 295 296 300 302 298 291 290 290 287 285 284 284 286 289 288 287 287 288 289 290 289 286 284 281 279 278 277 274
215 225 217 223 242 247 248 248 246 247 261 265 259 252 257 265 266 266 267 267 265 264 265 269 272 273 273 271 269 269 270 274 280 282 282 283 284 284 283 283 283 285 285 285 288 289 288 288 288 286 286 287 288 288 288 289 290 292 295 298 301 301 293 287 286 284 282 283 283 284 287 289 287 285 285 283 283 284 285 286 286 284 278 275 276 277